Location: Unspecified
(0.0000°N, 0.0000°E)
Time: 22:28:14
(UTC+00:00)

Cosmos 80 Rocket - Pass Details

Date: 27 September 2021
Orbit: 1360 x 1510 km, 56.1° (Epoch: 24 October)

Event Time Altitude Azimuth Distance (km) Brightness Sun altitude
Rises 20:44:43 0° 323° (NW) 4,581 8.3 -43.4°
Reaches altitude 10° 20:47:45 10° 321° (NW) 3,585 7.7 -44.2°
Enters shadow 20:52:33 36° 310° (NW) 2,142 6.4 -45.4°
